IBE114 EDDM-EDDF

Flight info

Callsign IBE114
Flight time 0h 33m
Altitude 24000
Route GIVMI6Q GIVMI Y101 ERNAS T161 DEBHI DEBHI1B
Aircraft A343/H-SDE2E3FGHIJ4J5M1RWXY/LB1D1

Departure

Time 2026-05-04 15:13
Airport Munich Airport (EDDM)

Arrival

Time 2026-05-04 15:47
Airport Frankfurt Main Airport (EDDF)
Time Latitude Longitude Altitude Speed Heading
2026-05-04 14:48 48.35307 11.79348 1474 ft 0 kts 262°
2026-05-04 15:00 48.35308 11.79359 1474 ft 4 kts 262°
2026-05-04 15:00 48.35311 11.79399 1478 ft 4 kts 263°
2026-05-04 15:01 48.35310 11.79467 1474 ft 4 kts 323°
2026-05-04 15:01 48.35287 11.79483 1474 ft 4 kts 352°
2026-05-04 15:01 48.35282 11.79484 1474 ft 0 kts 353°
2026-05-04 15:07 48.35283 11.79484 1474 ft 1 kts 353°
2026-05-04 15:07 48.35309 11.79479 1474 ft 7 kts 353°
2026-05-04 15:07 48.35383 11.79467 1481 ft 14 kts 354°
2026-05-04 15:08 48.35490 11.79448 1487 ft 17 kts 353°
2026-05-04 15:08 48.35608 11.79427 1482 ft 18 kts 353°
2026-05-04 15:08 48.35733 11.79406 1478 ft 19 kts 353°
2026-05-04 15:08 48.35865 11.79384 1483 ft 19 kts 354°
2026-05-04 15:09 48.35946 11.79345 1478 ft 12 kts 346°
2026-05-04 15:09 48.35999 11.79332 1478 ft 12 kts 352°
2026-05-04 15:09 48.36079 11.79297 1474 ft 11 kts 314°
2026-05-04 15:10 48.36069 11.79011 1481 ft 20 kts 263°
2026-05-04 15:10 48.36050 11.78753 1478 ft 29 kts 263°
2026-05-04 15:10 48.35992 11.78002 1478 ft 40 kts 263°
2026-05-04 15:11 48.35961 11.77595 1476 ft 39 kts 263°
2026-05-04 15:11 48.35929 11.77197 1487 ft 38 kts 263°
2026-05-04 15:11 48.35914 11.76941 1489 ft 15 kts 275°
2026-05-04 15:11 48.35981 11.76832 1476 ft 15 kts 341°
2026-05-04 15:12 48.36088 11.76808 1474 ft 16 kts 353°
2026-05-04 15:12 48.36204 11.76808 1484 ft 18 kts 15°
2026-05-04 15:12 48.36284 11.76942 1476 ft 19 kts 72°
2026-05-04 15:12 48.36312 11.77212 1480 ft 44 kts 83°
2026-05-04 15:13 48.36370 11.77990 1482 ft 104 kts 83°
2026-05-04 15:13 48.36476 11.79339 1490 ft 153 kts 83°
2026-05-04 15:13 48.36612 11.81104 1734 ft 176 kts 82°
2026-05-04 15:13 48.36760 11.82955 2360 ft 183 kts 83°
2026-05-04 15:14 48.37270 11.84730 2872 ft 194 kts 46°
2026-05-04 15:14 48.38513 11.85570 3415 ft 207 kts
2026-05-04 15:14 48.40003 11.85890 3884 ft 227 kts 10°
2026-05-04 15:14 48.41676 11.85835 4295 ft 255 kts 342°
2026-05-04 15:15 48.43173 11.84345 5120 ft 265 kts 314°
2026-05-04 15:15 48.44408 11.82233 6051 ft 272 kts 309°
2026-05-04 15:15 48.45624 11.80018 7011 ft 276 kts 309°
2026-05-04 15:16 48.48200 11.75382 8365 ft 308 kts 308°
2026-05-04 15:16 48.49626 11.72845 9005 ft 321 kts 308°
2026-05-04 15:16 48.52472 11.67818 10948 ft 322 kts 307°
2026-05-04 15:17 48.53972 11.65161 11301 ft 342 kts 307°
2026-05-04 15:17 48.57172 11.59500 12526 ft 361 kts 307°
2026-05-04 15:17 48.58817 11.56593 13258 ft 367 kts 307°
2026-05-04 15:18 48.60485 11.53636 14007 ft 373 kts 307°
2026-05-04 15:18 48.62176 11.50632 14748 ft 376 kts 307°
2026-05-04 15:18 48.63878 11.47606 15524 ft 379 kts 307°
2026-05-04 15:19 48.67317 11.41484 16935 ft 376 kts 307°
2026-05-04 15:19 48.69022 11.38465 17271 ft 383 kts 308°
2026-05-04 15:19 48.73136 11.33171 18591 ft 397 kts 321°
2026-05-04 15:20 48.75430 11.30797 19234 ft 401 kts 323°
2026-05-04 15:20 48.77792 11.28469 19856 ft 405 kts 324°
2026-05-04 15:20 48.80170 11.26152 20519 ft 408 kts 324°
2026-05-04 15:20 48.82569 11.23795 21163 ft 411 kts 323°
2026-05-04 15:21 48.84852 11.21203 21780 ft 411 kts 317°
2026-05-04 15:21 48.87039 11.18389 22417 ft 413 kts 315°
2026-05-04 15:21 48.91335 11.12504 23606 ft 419 kts 314°
2026-05-04 15:22 48.93382 11.09338 23884 ft 420 kts 308°
2026-05-04 15:22 48.95302 11.05986 23952 ft 431 kts 307°
2026-05-04 15:22 48.99209 10.98926 23962 ft 438 kts 307°
2026-05-04 15:23 49.01166 10.95359 23975 ft 438 kts 307°
2026-05-04 15:23 49.03117 10.91793 23976 ft 438 kts 307°
2026-05-04 15:23 49.05065 10.88223 23974 ft 438 kts 306°
2026-05-04 15:23 49.07013 10.84647 23975 ft 438 kts 306°
2026-05-04 15:24 49.10902 10.77490 23987 ft 438 kts 306°
2026-05-04 15:24 49.14792 10.70309 23990 ft 438 kts 306°
2026-05-04 15:25 49.16734 10.66718 24006 ft 438 kts 306°
2026-05-04 15:25 49.18676 10.63120 23997 ft 439 kts 306°
2026-05-04 15:25 49.20618 10.59517 23996 ft 439 kts 306°
2026-05-04 15:26 49.24476 10.52348 23981 ft 439 kts 306°
2026-05-04 15:26 49.26417 10.48733 23982 ft 439 kts 306°
2026-05-04 15:26 49.30294 10.41498 23984 ft 439 kts 306°
2026-05-04 15:27 49.32222 10.37897 23773 ft 432 kts 307°
2026-05-04 15:27 49.36005 10.30984 23286 ft 418 kts 307°
2026-05-04 15:28 49.39709 10.24109 22778 ft 417 kts 307°
2026-05-04 15:28 49.41544 10.20670 22495 ft 415 kts 307°
2026-05-04 15:28 49.45183 10.13822 21967 ft 414 kts 307°
2026-05-04 15:29 49.46994 10.10400 21706 ft 411 kts 307°
2026-05-04 15:30 49.54045 9.97042 20332 ft 394 kts 307°
2026-05-04 15:30 49.59211 9.87196 19118 ft 406 kts 306°
2026-05-04 15:31 49.62597 9.80741 17900 ft 372 kts 307°
2026-05-04 15:31 49.64241 9.77588 17407 ft 384 kts 307°
2026-05-04 15:32 49.69414 9.67645 16294 ft 397 kts 307°
2026-05-04 15:32 49.72886 9.60949 14900 ft 397 kts 307°
2026-05-04 15:33 49.76317 9.54321 13927 ft 393 kts 307°
2026-05-04 15:34 49.81386 9.44512 12389 ft 385 kts 307°
2026-05-04 15:34 49.83058 9.41268 11885 ft 385 kts 307°
2026-05-04 15:34 49.86189 9.34705 10911 ft 378 kts 295°
2026-05-04 15:35 49.87846 9.27115 10591 ft 369 kts 284°
2026-05-04 15:35 49.88557 9.23364 10349 ft 356 kts 284°
2026-05-04 15:35 49.89246 9.19739 10132 ft 346 kts 284°
2026-05-04 15:36 49.90594 9.12664 9707 ft 331 kts 284°
2026-05-04 15:36 49.91238 9.09288 9513 ft 319 kts 284°
2026-05-04 15:36 49.91855 9.06047 9336 ft 307 kts 284°
2026-05-04 15:37 49.92449 9.02927 9165 ft 297 kts 284°
2026-05-04 15:37 49.93208 8.99994 9012 ft 292 kts 298°
2026-05-04 15:37 49.94383 8.97503 8822 ft 287 kts 299°
2026-05-04 15:37 49.95034 8.94624 8670 ft 281 kts 275°
2026-05-04 15:38 49.95084 8.91620 8525 ft 277 kts 266°
2026-05-04 15:38 49.95252 8.88647 8379 ft 280 kts 285°
2026-05-04 15:38 49.96249 8.86043 8177 ft 287 kts 313°
2026-05-04 15:38 49.97945 8.84418 7897 ft 292 kts 342°
2026-05-04 15:39 49.99963 8.84193 7647 ft 294 kts 11°
2026-05-04 15:39 50.01826 8.85430 7396 ft 293 kts 40°
2026-05-04 15:39 50.03886 8.90632 6889 ft 282 kts 73°
2026-05-04 15:40 50.04571 8.93490 6523 ft 282 kts 73°
2026-05-04 15:40 50.05568 8.96085 6106 ft 287 kts 51°
2026-05-04 15:40 50.07179 8.97969 5521 ft 295 kts 26°
2026-05-04 15:40 50.09147 8.98751 4942 ft 289 kts
2026-05-04 15:41 50.11021 8.98173 4407 ft 262 kts 330°
2026-05-04 15:41 50.12239 8.96338 4059 ft 234 kts 295°
2026-05-04 15:41 50.12463 8.93949 3996 ft 225 kts 261°
2026-05-04 15:41 50.11975 8.91649 3997 ft 223 kts 248°
2026-05-04 15:42 50.11367 8.89435 3993 ft 218 kts 249°
2026-05-04 15:42 50.10833 8.87289 3982 ft 207 kts 251°
2026-05-04 15:42 50.10347 8.85208 3925 ft 204 kts 252°
2026-05-04 15:42 50.09852 8.83143 3736 ft 201 kts 251°
2026-05-04 15:43 50.09363 8.81122 3447 ft 198 kts 252°
2026-05-04 15:43 50.08888 8.79107 3120 ft 198 kts 253°
2026-05-04 15:43 50.08414 8.77113 2840 ft 195 kts 253°
2026-05-04 15:43 50.07956 8.75191 2582 ft 189 kts 254°
2026-05-04 15:44 50.07506 8.73306 2337 ft 180 kts 253°
2026-05-04 15:44 50.07083 8.71536 2095 ft 170 kts 254°
2026-05-04 15:44 50.06693 8.69897 1876 ft 153 kts 253°
2026-05-04 15:44 50.06339 8.68420 1692 ft 138 kts 254°
2026-05-04 15:45 50.06018 8.67056 1490 ft 134 kts 253°
2026-05-04 15:45 50.05684 8.65717 1337 ft 134 kts 252°
2026-05-04 15:45 50.05345 8.64349 1154 ft 134 kts 252°
2026-05-04 15:45 50.05023 8.62981 1012 ft 135 kts 253°
2026-05-04 15:46 50.04704 8.61603 825 ft 134 kts 249°
2026-05-04 15:46 50.04386 8.60253 647 ft 131 kts 251°
2026-05-04 15:46 50.04074 8.58951 429 ft 126 kts 249°
2026-05-04 15:46 50.03782 8.57722 371 ft 104 kts 249°
2026-05-04 15:47 50.03595 8.56932 360 ft 52 kts 250°
2026-05-04 15:47 50.03491 8.56494 363 ft 38 kts 250°
2026-05-04 15:47 50.03441 8.56214 359 ft 19 kts 264°
2026-05-04 15:47 50.03445 8.55999 357 ft 22 kts 277°
2026-05-04 15:48 50.03459 8.55858 352 ft 0 kts 279°
2026-05-04 15:48 50.03465 8.55800 358 ft 8 kts 279°
2026-05-04 15:49 50.03491 8.55715 359 ft 9 kts 322°
2026-05-04 15:49 50.03544 8.55718 359 ft 9 kts 32°
2026-05-04 15:49 50.03588 8.55871 358 ft 26 kts 70°
2026-05-04 15:49 50.03673 8.56227 362 ft 41 kts 69°
2026-05-04 15:50 50.03772 8.56642 359 ft 41 kts 70°
2026-05-04 15:50 50.03871 8.57057 367 ft 41 kts 69°
2026-05-04 15:50 50.03973 8.57488 371 ft 44 kts 70°
2026-05-04 15:50 50.04080 8.57932 374 ft 43 kts 70°
2026-05-04 15:51 50.04136 8.58122 375 ft 16 kts 45°
2026-05-04 15:51 50.04247 8.58208 375 ft 10 kts 11°
2026-05-04 15:51 50.04289 8.58199 376 ft 0 kts 341°
2026-05-04 15:52 50.04295 8.58196 375 ft 2 kts 341°
2026-05-04 15:52 50.04315 8.58185 374 ft 5 kts 341°
2026-05-04 15:52 50.04381 8.58150 373 ft 15 kts 340°
2026-05-04 15:52 50.04476 8.58094 371 ft 0 kts 339°
2026-05-04 15:53 50.04484 8.58090 376 ft 3 kts 339°
2026-05-04 15:53 50.04514 8.58072 373 ft 7 kts 339°
2026-05-04 15:53 50.04582 8.58033 373 ft 14 kts 339°
2026-05-04 15:53 50.04629 8.58006 369 ft 0 kts 339°
2026-05-04 15:54 50.04633 8.58003 369 ft 4 kts 339°
2026-05-04 15:54 50.04641 8.57998 368 ft 0 kts 339°
2026-05-04 15:54 50.04655 8.57990 369 ft 6 kts 339°
2026-05-04 15:54 50.04723 8.57952 369 ft 14 kts 343°
2026-05-04 15:55 50.04785 8.57998 370 ft 14 kts 51°
2026-05-04 15:55 50.04837 8.58198 369 ft 24 kts 70°
2026-05-04 15:55 50.04901 8.58464 371 ft 27 kts 69°
2026-05-04 15:55 50.04939 8.58621 367 ft 0 kts 69°
2026-05-04 15:56 50.04941 8.58623 367 ft 1 kts 59°
2026-05-04 15:56 50.04949 8.58624 370 ft 1 kts 14°
2026-05-04 15:56 50.04957 8.58612 368 ft 3 kts 320°
2026-05-04 15:56 50.04966 8.58580 370 ft 5 kts 296°
2026-05-04 15:57 50.04992 8.58553 370 ft 5 kts 338°
2026-05-04 15:57 50.05011 8.58541 369 ft 1 kts 339°
2026-05-04 15:57 50.05016 8.58538 368 ft 0 kts 339°